Regional Weather Roundup
Issued by NWS

Home | Current Version | Previous Version | Text Only | Print | Product List | Glossary On
Versions: 1 2 3 4 5 6 7 8 9 10 11 12 13 14 15 16 17 18 19 20 21 22 23 24 25 26 27 28 29 30 31 32 33 34 35 36 37 38 39 40 41 42 43 44 45 46 47 48 49 50
000
ASUS42 KKEY 030610
RWRKEY

FLORIDA REGIONAL WEATHER ROUNDUP FOR THE FLORIDA KEYS
NATIONAL WEATHER SERVICE KEY WEST FLORIDA
200 AM EDT WED SEP 03 2014

...SOUTH FLORIDA AND THE KEYS...

CITY           SKY/WX    TMP DP  RH WIND       PRES   REMARKS
FORT MYERS     FAIR      73  72  96 E5        30.00F
SW REGIONAL AP FAIR      73  71  93 NE6       30.01F
NAPLES         FAIR      74  71  91 CALM      30.00F
MIAMI          FAIR      77  74  90 CALM      30.00F
WEST KENDALL   FAIR      78  71  79 CALM      30.00S
HOMESTEAD      FAIR      80  73  79 E5        29.99S
MARATHON       FAIR      82  73  74 E5        29.98S
BOCA CHICA NAS FAIR      81  72  74 E6        29.98S
KEY WEST INTL  FAIR      83  71  67 E7        29.98S

...INTERNATIONAL WEATHER...

CITY           SKY/WX    TMP DP  RH WIND       PRES   REMARKS
NASSAU BAHAMAS MOCLDY    75  70  83 SE8       30.03
CANCUN MEXICO  PTCLDY    79  77  94 CALM      29.93F
COZUMEL MEXICO NOT AVBL

ADJACENT COASTAL WATERS...

STATION/POSITION TIME  SKY/WX   TEMP    WIND        PRES    WAVE
                                AIR SEA DIR/SP/G            HT/PER
                 (UTC)          (F)     (DEG/KT/KT) (MB)    (FT/S)
PULASKI SHOAL LI 0600            84     130/  9/ 11 1014.8F
SAND KEY         0600            83     110/  9/ 11 1015.1F
SOMBRERO KEY     0600            83      70/  7/  8 1015.9R
LONG KEY         0500            83 86  120/ 10/ 11 1016.0F
MOLASSES REEF    0600            81 87  120/ 13/ 15 1015.3S
FOWEY ROCKS      0600            82 86  100/ 13/ 15 1016.0R
Buoy 42080       NOT AVBL

$$


USA.gov is the U.S. government's official web portal to all federal, state and local government web resources and services.